Location: *
(44.3683°N, 6.6958°E)
Time: 10:32:57
(UTC+00:00)

STARLINK-65 - Pass Details

Date: 14 October 2019
Orbit: 548 x 551 km, 53.0° (Epoch: 12 November)

Event Time Altitude Azimuth Distance (km) Brightness Sun altitude
Rises 17:36:24 0° 236° (SW) 2,705 8.3 -8.8°
Reaches altitude 10° 17:38:37 10° 237° (WSW) 1,815 7.3 -9.2°
Maximum altitude 17:42:45 85° 326° (NW) 556 3.6 -9.9°
Enters shadow 17:46:50 11° 56° (NE) 1,793 5.7 -10.7°
